Location: Newark
(48.1333°N, 17.1000°E)
Time: 01:13:40
(UTC+00:00)

N. Korean satellite - Pass Details

Date: 02 February 2020
Orbit: 456 x 505 km, 97.2° (Epoch: 27 February)

Event Time Altitude Azimuth Distance (km) Brightness Sun altitude
Rises 05:24:12 0° 4° (N) 2,563 10.1 -9.5°
Reaches altitude 10° 05:26:23 10° 355° (N) 1,686 9.1 -9.1°
Maximum altitude 05:29:40 33° 290° (WNW) 851 7.3 -8.6°
Drops below altitude 10° 05:32:58 10° 225° (SW) 1,695 9.0 -8.1°
Sets 05:35:10 0° 216° (SW) 2,580 10.0 -7.7°
